Location: Newark
(42.9858°N, 0.6717°E)
Time: 13:51:26
(UTC+00:00)

Transit 4A - Visible Passes

Search period start: 22 November 2019 00:00
Search period end: 02 December 2019 00:00
Orbit: 869 x 976 km, 66.8° (Epoch: 21 November)

Date Brightness Start Highest point End Pass type
(mag) Time Alt. Az. Time Alt. Az. Time Alt. Az.
22 Nov 10.1 04:02:59 12° N 04:05:57 16° NE 04:09:35 10° ENE visible
22 Nov 8.0 05:47:31 10° NNW 05:53:25 71° ENE 05:59:13 10° SE visible
23 Nov 9.8 04:12:28 14° N 04:15:43 22° NE 04:20:07 10° E visible
23 Nov 7.8 05:56:52 10° NNW 06:02:46 80° WSW 06:08:33 10° SSE visible
24 Nov 9.4 04:22:01 18° N 04:25:22 29° NE 04:30:22 10° ESE visible
24 Nov 8.0 06:06:18 10° NW 06:12:01 54° WSW 06:17:38 10° S visible
25 Nov 10.6 02:48:06 10° NE 02:48:06 10° NE 02:48:11 10° NE visible
25 Nov 8.9 04:31:39 22° N 04:34:55 40° NE 04:40:21 10° ESE visible
25 Nov 8.4 06:15:55 10° NW 06:21:12 36° WSW 06:26:24 10° S visible
26 Nov 10.4 02:57:48 13° NE 02:57:48 13° NE 02:59:38 10° ENE visible
26 Nov 8.3 04:41:22 28° NNW 04:44:24 56° NE 04:50:06 10° SE visible
26 Nov 8.9 06:25:45 10° NW 06:30:18 24° WSW 06:34:48 10° SSW visible
26 Nov 10.3 19:45:43 10° SSW 19:45:57 11° SSW 19:45:57 11° SSW visible
27 Nov 10.1 03:07:35 17° NE 03:07:35 17° NE 03:10:24 10° E visible
27 Nov 7.8 04:51:09 35° NNW 04:53:48 81° ENE 04:59:36 10° SSE visible
27 Nov 9.9 18:12:09 10° SE 18:12:33 11° SE 18:12:33 11° SE visible
27 Nov 10.1 19:54:56 10° SSW 19:56:08 16° SSW 19:56:08 16° SSW visible
28 Nov 9.8 03:17:27 22° ENE 03:17:27 22° ENE 03:20:51 10° E visible
28 Nov 7.7 05:01:01 40° NW 05:03:07 70° WSW 05:08:51 10° SSE visible
28 Nov 9.3 18:19:53 10° SSE 18:22:42 20° SE 18:22:42 20° SE visible
28 Nov 9.9 20:04:24 10° SW 20:06:17 21° SW 20:06:17 21° SW visible
29 Nov 9.5 03:27:25 28° ENE 03:27:25 28° ENE 03:31:00 10° ESE visible
29 Nov 8.0 05:10:59 39° WNW 05:12:20 46° WSW 05:17:49 10° S visible
29 Nov 8.7 18:28:14 10° S 18:32:48 33° SE 18:32:48 33° SE visible
29 Nov 9.9 20:14:07 10° WSW 20:16:23 22° WSW 20:16:23 22° WSW visible
30 Nov 9.2 03:37:26 32° E 03:37:26 32° E 03:40:54 10° SE visible
30 Nov 8.5 05:21:01 30° W 05:21:29 31° WSW 05:26:29 10° S visible
30 Nov 8.0 18:36:59 10° S 18:42:50 51° ESE 18:42:50 51° ESE visible
30 Nov 10.0 20:24:04 10° WSW 20:26:24 21° W 20:26:24 21° W visible
01 Dec 9.2 03:47:32 32° SE 03:47:32 32° SE 03:50:33 10° SE visible
01 Dec 9.1 05:31:07 20° WSW 05:31:07 20° WSW 05:34:42 10° SSW visible
01 Dec 9.7 17:05:03 10° ESE 17:06:54 11° E 17:08:44 10° E visible
01 Dec 7.7 18:46:02 10° SSW 18:52:15 75° ESE 18:52:47 70° ENE visible
01 Dec 10.2 20:34:17 10° W 20:36:21 18° W 20:36:21 18° W visible
